Time,TemperatureF,DewpointF,PressureIn,WindDirection,WindDirectionDegrees,WindSpeedMPH,WindSpeedGustMPH,Humidity,HourlyPrecipIn,Conditions,Clouds,dailyrainin,SolarRadiationWatts/m^2,SoftwareType,DateUTC
2013-01-09 12:16:00,48.8,47.7,29.80,SSE,150,0.0,0.0,96,0.03,,,0.00,163,WeatherTracker,2013-01-09 20:16:00,
2013-01-09 12:20:00,48.8,47.7,29.80,SSE,150,0.0,0.0,96,0.03,,,0.00,171,WeatherTracker,2013-01-09 20:20:00,
2013-01-09 12:25:00,48.8,47.7,29.80,SSE,149,0.0,0.0,96,0.03,,,0.00,158,WeatherTracker,2013-01-09 20:25:00,
2013-01-09 12:35:00,49.0,47.9,29.79,SSE,150,0.0,0.0,96,0.03,,,0.00,151,WeatherTracker,2013-01-09 20:35:00,
2013-01-09 12:45:00,49.1,48.0,29.78,ENE,75,0.0,0.0,96,0.03,,,0.00,70,WeatherTracker,2013-01-09 20:45:00,
2013-01-09 12:50:00,49.0,47.9,29.78,East,79,0.0,0.0,96,0.03,,,0.00,67,WeatherTracker,2013-01-09 20:50:00,
2013-01-09 13:00:00,49.0,47.9,29.78,East,79,0.0,0.0,96,0.03,,,0.00,109,WeatherTracker,2013-01-09 21:00:00,
2013-01-09 13:10:00,49.2,48.1,29.77,SSW,213,0.0,0.0,96,0.03,,,0.00,149,WeatherTracker,2013-01-09 21:10:00,
2013-01-09 13:15:00,49.4,48.3,29.77,SW,232,0.0,0.0,96,0.03,,,0.00,125,WeatherTracker,2013-01-09 21:15:00,
2013-01-09 13:25:00,49.9,48.8,29.76,SW,227,0.0,0.0,96,0.00,,,0.00,81,WeatherTracker,2013-01-09 21:25:00,
2013-01-09 13:30:00,50.1,49.0,29.76,SW,226,0.0,0.0,96,0.00,,,0.00,74,WeatherTracker,2013-01-09 21:30:00,
2013-01-09 13:35:00,50.2,49.1,29.75,SW,227,0.0,0.0,96,0.00,,,0.00,84,WeatherTracker,2013-01-09 21:35:00,
2013-01-09 13:45:00,50.4,49.3,29.75,SW,227,0.0,0.0,96,0.00,,,0.00,70,WeatherTracker,2013-01-09 21:45:00,
2013-01-09 13:50:00,50.5,49.4,29.75,SW,229,0.0,0.0,96,0.00,,,0.00,79,WeatherTracker,2013-01-09 21:50:00,
2013-01-09 14:00:00,50.5,49.4,29.75,WNW,284,2.0,0.0,96,0.00,,,0.00,91,WeatherTracker,2013-01-09 22:00:00,
2013-01-09 14:05:00,50.3,49.2,29.75,WSW,249,1.0,0.0,96,0.00,,,0.00,62,WeatherTracker,2013-01-09 22:05:00,
2013-01-09 14:10:00,50.3,49.2,29.75,West,281,3.0,0.0,96,0.00,,,0.00,84,WeatherTracker,2013-01-09 22:10:00,
2013-01-09 14:15:00,50.2,49.1,29.75,WNW,287,6.0,0.0,96,0.00,,,0.00,62,WeatherTracker,2013-01-09 22:15:00,
2013-01-09 14:20:00,50.1,49.0,29.75,WNW,294,1.0,0.0,96,0.00,,,0.00,44,WeatherTracker,2013-01-09 22:20:00,
2013-01-09 14:25:00,50.0,48.9,29.75,WNW,292,5.0,0.0,96,0.00,,,0.00,39,WeatherTracker,2013-01-09 22:25:00,
2013-01-09 14:35:00,49.5,48.4,29.76,WNW,302,6.0,0.0,96,0.00,,,0.00,58,WeatherTracker,2013-01-09 22:35:00,
2013-01-09 14:45:00,48.9,47.5,29.76,NW,317,9.0,0.0,95,0.00,,,0.00,88,WeatherTracker,2013-01-09 22:45:00,
2013-01-09 14:50:00,48.8,47.4,29.76,West,263,5.0,0.0,95,0.00,,,0.00,79,WeatherTracker,2013-01-09 22:50:00,
2013-01-09 15:05:00,48.5,46.9,29.76,NW,317,6.0,0.0,94,0.00,,,0.00,70,WeatherTracker,2013-01-09 23:05:00,
2013-01-09 15:15:00,49.0,47.1,29.76,West,273,2.0,0.0,93,0.00,,,0.00,144,WeatherTracker,2013-01-09 23:15:00,